TimePST,TemperatureF,Dew PointF,Humidity,Sea Level PressureIn,VisibilityMPH,Wind Direction,Wind SpeedMPH,Gust SpeedMPH,PrecipitationIn,Events,Conditions,WindDirDegrees,DateUTC
12:54 AM,46.9,44.1,90,30.01,10.0,ENE,4.6,-,N/A,,Clear,70,2012-11-26 08:54:00
1:54 AM,46.0,43.0,89,30.01,10.0,East,3.5,-,N/A,,Clear,80,2012-11-26 09:54:00
2:54 AM,46.0,42.1,86,30.03,10.0,ENE,3.5,-,N/A,,Clear,60,2012-11-26 10:54:00
3:03 AM,44.6,42.8,93,29.99,10.0,ENE,4.6,-,N/A,,Scattered Clouds,60,2012-11-26 11:03:00
3:11 AM,44.6,42.8,93,29.99,10.0,Calm,Calm,-,N/A,,Mostly Cloudy,0,2012-11-26 11:11:00
3:54 AM,46.0,43.0,89,30.03,10.0,Calm,Calm,-,N/A,,Overcast,0,2012-11-26 11:54:00
4:37 AM,46.4,42.8,87,30.01,10.0,Calm,Calm,-,N/A,,Mostly Cloudy,0,2012-11-26 12:37:00
4:54 AM,46.9,43.0,86,30.04,10.0,ENE,3.5,-,N/A,,Scattered Clouds,70,2012-11-26 12:54:00
5:40 AM,44.6,42.8,93,30.01,1.8,Calm,Calm,-,N/A,,Clear,0,2012-11-26 13:40:00
5:54 AM,45.0,43.0,93,30.04,3.0,Calm,Calm,-,N/A,,Clear,0,2012-11-26 13:54:00
6:23 AM,44.6,42.8,93,30.02,4.0,Calm,Calm,-,N/A,,Partly Cloudy,0,2012-11-26 14:23:00
6:26 AM,44.6,42.8,93,30.02,0.8,Calm,Calm,-,N/A,,Mist,0,2012-11-26 14:26:00
6:41 AM,44.6,42.8,93,30.02,1.5,Calm,Calm,-,N/A,,Mostly Cloudy,0,2012-11-26 14:41:00
6:49 AM,44.6,42.8,93,30.02,2.0,Calm,Calm,-,N/A,,Mostly Cloudy,0,2012-11-26 14:49:00
6:54 AM,44.1,42.1,93,30.06,1.5,Calm,Calm,-,N/A,,Mostly Cloudy,0,2012-11-26 14:54:00
7:01 AM,44.6,42.8,93,30.03,0.2,Calm,Calm,-,N/A,Fog,Fog,0,2012-11-26 15:01:00
7:18 AM,44.6,42.8,93,30.03,0.2,Calm,Calm,-,N/A,Fog,Fog,0,2012-11-26 15:18:00
7:34 AM,44.6,42.8,93,30.03,0.2,East,3.5,-,N/A,Fog,Fog,80,2012-11-26 15:34:00
7:54 AM,45.0,44.1,97,30.07,0.2,Calm,Calm,-,N/A,Fog,Fog,0,2012-11-26 15:54:00
8:54 AM,48.0,48.0,100,30.09,0.5,Calm,Calm,-,N/A,Fog,Fog,0,2012-11-26 16:54:00
9:13 AM,48.2,48.2,100,30.05,2.0,Calm,Calm,-,N/A,,Mostly Cloudy,0,2012-11-26 17:13:00
9:16 AM,48.2,48.2,100,30.05,3.0,Calm,Calm,-,N/A,,Scattered Clouds,0,2012-11-26 17:16:00
9:54 AM,54.0,48.0,80,30.09,8.0,Calm,Calm,-,N/A,,Clear,0,2012-11-26 17:54:00
10:54 AM,55.9,48.9,77,30.09,7.0,WNW,3.5,-,N/A,,Clear,290,2012-11-26 18:54:00
11:54 AM,57.0,50.0,77,30.07,4.0,WNW,8.1,-,N/A,,Haze,290,2012-11-26 19:54:00
12:54 PM,57.9,51.1,78,30.05,4.0,West,6.9,-,N/A,,Haze,270,2012-11-26 20:54:00
1:54 PM,61.0,51.1,70,30.04,6.0,WNW,6.9,-,N/A,,Haze,300,2012-11-26 21:54:00
2:54 PM,63.0,48.9,60,30.04,10.0,NW,9.2,-,N/A,,Clear,320,2012-11-26 22:54:00
3:54 PM,60.1,50.0,69,30.04,10.0,NW,6.9,-,N/A,,Clear,310,2012-11-26 23:54:00
4:54 PM,57.0,50.0,77,30.04,10.0,NNW,6.9,-,N/A,,Clear,330,2012-11-27 00:54:00
5:54 PM,55.0,50.0,83,30.06,9.0,NW,5.8,-,N/A,,Clear,320,2012-11-27 01:54:00
6:54 PM,54.0,50.0,86,30.07,7.0,NNW,5.8,-,N/A,,Clear,330,2012-11-27 02:54:00
7:54 PM,53.1,50.0,89,30.09,8.0,North,4.6,-,N/A,,Clear,350,2012-11-27 03:54:00
8:54 PM,53.1,48.9,86,30.10,7.0,Calm,Calm,-,N/A,,Clear,0,2012-11-27 04:54:00
9:54 PM,50.0,46.9,89,30.10,7.0,ENE,3.5,-,N/A,,Clear,60,2012-11-27 05:54:00
10:54 PM,48.9,46.0,90,30.11,7.0,East,3.5,-,N/A,,Clear,80,2012-11-27 06:54:00
11:54 PM,48.9,46.0,90,30.10,7.0,ENE,4.6,-,N/A,,Clear,70,2012-11-27 07:54:00